Content
SEND FEEDBACK

Daily
Averages
Monthly
Summary
United States of America

ST. LOUIS, MISSOURI


Home > North America > United States > Missouri
Elevation: 535 feet     Latitude: 38 45N     Longitude: 090 22W

WEATHER
 
SELECT A DAY
Number of Records: 196,649;   Date Range: 1/1/95 - 9/18/14
 
SHARE

PRINT THIS DATA

[ ← Previous Day ]
WEATHER ALMANAC - SEPTEMBER 25, 2013
[ Next Day → ]
[ °C ]   °F
Weather ElementAverageHighLow
Temperature68.4 °F81 °F (3:54 pm)61 °F (11:54 pm)
Dewpoint63.2 °F66 °F (11:54 am)60.1 °F (4:54 pm)
Humidity85.2 %100 % (1:38 am)50 % (4:54 pm)
Barometer29.83 in29.87 in (10:41 am)29.77 in (1:54 am)
Wind Speed2.1 mph8.1 mph (2:54 pm)
Weather ElementAverage
Visibility6.1 mi
Wind DirectionNE (45.9 °)

Weather ElementTotal
Precipitation---
Cooling Degree Days6 (Base 65)
Growing Degree Days21 (Base 50)
Averaged from 34 records on September 25, 2013
WEATHER CONDITIONS BREAKOUT
WIND DIRECTION BREAKOUT
WEATHER BY HOUR - SEPTEMBER 25, 2013
[ °C ]   °F
Local TimeTemperatureDewpointHumidityBarometerVisibilityWind DirectionWind SpeedGust SpeedPrecipitationEventsConditions
1:38 AM64.4 °F64.4 °F100 %29.79 in1.8 miSSW (210°)3.5 mphScattered Clouds
1:41 AM64.4 °F62.6 °F94 %29.79 in0.8 miCalmScattered Clouds
1:54 AM64.0 °F64.0 °F100 %29.77 in0.5 miNE (50°)4.6 mphFogFog
2:00 AM64.4 °F62.6 °F94 %29.78 in2.5 miEast (90°)4.6 mphPartly Cloudy
2:07 AM64.4 °F62.6 °F94 %29.79 in6.0 miCalmPartly Cloudy
2:54 AM64.9 °F64.0 °F97 %29.78 in7.0 miENE (70°)4.6 mphMostly Cloudy
3:54 AM66.0 °F64.0 °F93 %29.78 in5.0 miCalmOvercast
4:54 AM66.0 °F64.9 °F96 %29.78 in6.0 miCalmOvercast
5:07 AM66.2 °F64.4 °F94 %29.81 in5.0 miCalmOvercast
5:26 AM66.2 °F64.4 °F94 %29.82 in4.0 miCalmOvercast
5:54 AM66.0 °F64.9 °F96 %29.80 in6.0 miEast (100°)3.5 mphOvercast
6:54 AM66.0 °F64.0 °F93 %29.82 in7.0 miESE (110°)3.5 mphOvercast
7:54 AM68.0 °F64.9 °F90 %29.83 in5.0 miNE (40°)3.5 mphOvercast
8:54 AM68.0 °F64.9 °F90 %29.84 in7.0 miEast (90°)4.6 mphOvercast
9:54 AM69.1 °F64.9 °F87 %29.85 in7.0 miNNE (20°)4.6 mphOvercast
10:41 AM71.6 °F64.4 °F78 %29.87 in7.0 miCalmOvercast
10:54 AM72.0 °F64.9 °F78 %29.86 in8.0 miNorth (360°)5.8 mphOvercast
11:54 AM75.0 °F66.0 °F73 %29.85 in10.0 miSW (220°)4.6 mphMostly Cloudy
12:54 PM75.9 °F63.0 °F64 %29.85 in10.0 miEast (90°)3.5 mphOvercast
1:54 PM77.0 °F62.1 °F60 %29.83 in10.0 miCalmMostly Cloudy
2:54 PM80.1 °F62.1 °F54 %29.82 in10.0 miNNE (20°)8.1 mphMostly Cloudy
3:54 PM81.0 °F62.1 °F52 %29.81 in10.0 miNNE (20°)5.8 mphMostly Cloudy
4:54 PM80.1 °F60.1 °F50 %29.81 in10.0 miCalmScattered Clouds
5:54 PM80.1 °F61.0 °F52 %29.82 in10.0 miENE (70°)5.8 mphScattered Clouds
6:54 PM71.1 °F64.9 °F81 %29.82 in10.0 miCalmScattered Clouds
7:54 PM68.0 °F64.0 °F87 %29.84 in10.0 miCalmScattered Clouds
8:54 PM66.9 °F63.0 °F87 %29.84 in10.0 miCalmClear
9:54 PM64.9 °F63.0 °F93 %29.86 in6.0 miCalmClear
10:54 PM64.0 °F63.0 °F96 %29.86 in10.0 miCalmClear
11:15 PM62.6 °F62.6 °F100 %29.87 in1.8 miCalmClear
11:25 PM62.6 °F60.8 °F94 %29.87 in0.8 miCalmClear
11:29 PM62.6 °F60.8 °F94 %29.87 in2.0 miCalmClear
11:36 PM62.6 °F60.8 °F94 %29.87 in0.8 miCalmClear
11:54 PM61.0 °F60.1 °F97 %29.86 in1.2 miCalmClear
Hourly data recorded from KSUS, located miles away from St. Louis, Missouri







STORIES FROM OUR PARTNERS